Location: downtown San Diego
(32.7310°N, 117.1990°W)
Time: 17:57:56
(UTC-07:00)

Cosmos 2074 Rocket - Pass Details

Date: 19 May 2017
Orbit: 967 x 987 km, 82.9° (Epoch: 26 May)

Event Time Altitude Azimuth Distance (km) Brightness Sun altitude
Rises 21:58:26 0° 352° (N) 3,670 7.9 -23.9°
Reaches altitude 10° 22:00:56 10° 352° (N) 2,722 7.1 -24.2°
Maximum altitude 22:07:10 81° 266° (W) 992 4.0 -25.1°
Enters shadow 22:09:06 47° 187° (S) 1,266 4.3 -25.4°
